Date String (YYYY-MM-DD hh:mm:ss) UTC,Instrument flags,Ambient pressure (hPa),Sample flow (lpm),Bypass flow (lpm),Sample temperature (°C),Ambient temperature (°C),ASC tube jacket temperature (°C),LED temperature (°C),Box temperature (°C),Sample RH (%),Span deviation,Mass concentration (μg/m³),Mass concentration (μg/m³),Mass concentration (μg/m³)
DateTimeUTC,F1_M11,P_M11,Q1_M11,Q2_M11,T1_M11,T2_M11,T3_M11,T4_M11,T5_M11,U1_M11,ZSPAN_M11,X2_M11,X0_M11,X1_M11
2022-04-12 21:00:00,,0809.1,5.00,0.00,22.5,21.6,00.0,31.6,24.3,07.6,0000.0,0003.27,0010.98,0000.90
2022-04-12 21:01:00,,0809.1,5.00,0.00,22.6,21.5,00.0,31.6,24.3,07.4,0000.0,0003.24,0010.57,0000.89
2022-04-12 21:02:00,,0809.0,5.01,0.00,22.5,21.5,00.0,31.6,24.3,07.3,0000.0,0003.25,0010.59,0000.89
2022-04-12 21:03:00,,0809.1,5.01,0.00,22.6,21.5,00.0,31.6,24.3,07.2,0000.0,0003.28,0010.65,0000.89
2022-04-12 21:04:00,,0809.2,5.00,0.00,22.6,21.5,00.0,31.6,24.3,07.2,0000.0,0003.34,0010.56,0000.89
2022-04-12 21:05:00,,0809.1,5.00,0.00,22.6,21.5,00.0,31.6,24.3,07.4,0000.0,0003.29,0010.37,0000.90
2022-04-12 21:06:00,,0809.1,5.00,0.00,22.6,21.5,00.0,31.5,24.3,07.4,0000.0,0003.32,0010.17,0000.91
2022-04-12 21:07:00,,0809.0,5.00,0.00,22.5,21.5,00.0,31.5,24.3,07.4,0000.0,0003.32,0010.06,0000.90
2022-04-12 21:08:00,,0809.0,4.99,0.00,22.5,21.5,00.0,31.5,24.3,07.5,0000.0,0003.31,0009.96,0000.90
2022-04-12 21:09:00,,0809.0,5.01,0.00,22.5,21.5,00.0,31.5,24.4,07.4,0000.0,0003.31,0010.24,0000.89
2022-04-12 21:10:00,,0809.1,4.99,0.00,22.6,21.5,00.0,31.5,24.3,07.4,0000.0,0003.28,0009.75,0000.88
2022-04-12 21:11:00,,0809.0,5.00,0.00,22.5,21.5,00.0,31.5,24.3,07.3,0000.0,0003.27,0009.52,0000.87
2022-04-12 21:12:00,,0809.0,5.01,0.00,22.5,21.5,00.0,31.5,24.3,07.4,0000.0,0003.28,0009.60,0000.87
2022-04-12 21:13:00,,0809.0,5.00,0.00,22.5,21.5,00.0,31.5,24.2,07.1,0000.0,0003.32,0009.70,0000.87
2022-04-12 21:14:00,,0808.8,4.98,0.00,22.5,21.5,00.0,31.5,24.3,07.5,0000.0,0003.27,0009.90,0000.86
2022-04-12 21:15:00,,0808.8,5.00,0.00,22.5,21.5,00.0,31.5,24.3,07.4,0000.0,0003.20,0010.26,0000.86
2022-04-12 21:16:00,,0808.9,5.02,0.00,22.5,21.5,00.0,31.5,24.3,07.3,0000.0,0003.21,0009.59,0000.86
2022-04-12 21:17:00,,0808.9,4.99,0.00,22.5,21.5,00.0,31.5,24.3,07.4,0000.0,0003.18,0010.25,0000.85
2022-04-12 21:18:00,,0808.9,4.99,0.00,22.5,21.5,00.0,31.5,24.3,07.5,0000.0,0003.17,0010.26,0000.85
2022-04-12 21:19:00,,0808.8,5.01,0.00,22.5,21.5,00.0,31.5,24.3,07.5,0000.0,0003.22,0011.00,0000.85
2022-04-12 21:20:00,,0808.7,4.98,0.00,22.5,21.5,00.0,31.5,24.3,07.5,0000.0,0003.25,0011.15,0000.86
2022-04-12 21:21:00,,0808.8,4.99,0.00,22.5,21.4,00.0,31.5,24.2,07.3,0000.0,0003.23,0011.36,0000.85
2022-04-12 21:22:00,,0808.7,5.00,0.00,22.5,21.5,00.0,31.5,24.2,07.4,0000.0,0003.21,0011.27,0000.84
2022-04-12 21:23:00,,0808.7,5.01,0.00,22.5,21.4,00.0,31.5,24.2,07.4,0000.0,0003.17,0011.33,0000.84
2022-04-12 21:24:00,,0808.7,5.01,0.00,22.5,21.4,00.0,31.5,24.3,07.4,0000.0,0003.15,0011.86,0000.84
2022-04-12 21:25:00,,0808.6,4.99,0.00,22.5,21.4,00.0,31.5,24.3,07.4,0000.0,0003.16,0011.65,0000.83
2022-04-12 21:26:00,,0808.6,4.99,0.00,22.5,21.4,00.0,31.5,24.3,07.2,0000.0,0003.13,0011.10,0000.83
2022-04-12 21:27:00,,0808.5,5.02,0.00,22.5,21.4,00.0,31.4,24.2,07.2,0000.0,0003.10,0011.45,0000.82
2022-04-12 21:28:00,,0808.5,4.99,0.00,22.5,21.3,00.0,31.4,24.2,07.1,0000.0,0003.14,0010.77,0000.83
2022-04-12 21:29:00,,0808.5,4.99,0.00,22.5,21.3,00.0,31.4,24.2,07.2,0000.0,0003.18,0010.81,0000.84
2022-04-12 21:30:00,,0808.5,5.01,0.00,22.4,21.3,00.0,31.4,24.2,07.1,0000.0,0003.16,0010.27,0000.84
2022-04-12 21:31:00,,0808.6,4.99,0.00,22.4,21.3,00.0,31.4,24.2,07.0,0000.0,0003.07,0010.12,0000.85
2022-04-12 21:32:00,,0808.6,5.00,0.00,22.4,21.3,00.0,31.4,24.1,07.2,0000.0,0003.07,0009.95,0000.85
2022-04-12 21:33:00,,0808.6,5.00,0.00,22.4,21.3,00.0,31.4,24.1,07.2,0000.0,0003.07,0009.97,0000.87
2022-04-12 21:34:00,,0808.5,5.00,0.00,22.4,21.3,00.0,31.4,24.2,07.1,0000.0,0003.09,0009.72,0000.89
2022-04-12 21:35:00,,0808.4,4.99,0.00,22.4,21.3,00.0,31.4,24.2,07.2,0000.0,0003.05,0009.00,0000.89
2022-04-12 21:36:00,,0808.5,4.99,0.00,22.4,21.3,00.0,31.4,24.2,07.0,0000.0,0003.06,0009.66,0000.91
2022-04-12 21:37:00,,0808.6,5.01,0.00,22.4,21.3,00.0,31.4,24.1,06.9,0000.0,0003.14,0009.99,0000.91
2022-04-12 21:38:00,,0808.6,4.99,0.00,22.4,21.3,00.0,31.4,24.1,07.0,0000.0,0003.16,0009.59,0000.90
2022-04-12 21:39:00,,0808.7,5.00,0.00,22.4,21.3,00.0,31.4,24.1,07.1,0000.0,0003.18,0010.35,0000.90
2022-04-12 21:40:00,,0808.8,4.99,0.00,22.4,21.3,00.0,31.4,24.1,07.2,0000.0,0003.15,0010.63,0000.89
2022-04-12 21:41:00,,0808.7,5.00,0.00,22.4,21.3,00.0,31.3,24.1,07.1,0000.0,0003.16,0010.56,0000.90
2022-04-12 21:42:00,,0808.8,5.00,0.00,22.4,21.3,00.0,31.3,24.2,07.0,0000.0,0003.17,0010.28,0000.89
2022-04-12 21:43:00,,0808.8,5.00,0.00,22.4,21.2,00.0,31.3,24.1,06.8,0000.0,0003.18,0010.07,0000.89
2022-04-12 21:44:00,,0808.8,5.01,0.00,22.4,21.2,00.0,31.3,24.1,06.8,0000.0,0003.18,0009.99,0000.87
2022-04-12 21:45:00,,0808.9,4.99,0.00,22.4,21.2,00.0,31.3,24.1,06.6,0000.0,0003.14,0009.92,0000.86
2022-04-12 21:46:00,,0808.9,5.01,0.00,22.3,21.2,00.0,31.3,24.1,06.5,0000.0,0003.12,0009.85,0000.84
2022-04-12 21:47:00,,0808.9,5.00,0.00,22.3,21.2,00.0,31.3,24.0,06.5,0000.0,0003.13,0009.45,0000.84
2022-04-12 21:48:00,,0808.9,5.00,0.00,22.3,21.2,00.0,31.3,24.1,06.5,0000.0,0003.12,0009.38,0000.84
2022-04-12 21:49:00,,0808.8,5.00,0.00,22.3,21.2,00.0,31.3,24.0,06.5,0000.0,0003.09,0009.31,0000.84
2022-04-12 21:50:00,,0808.7,4.98,0.00,22.3,21.2,00.0,31.3,24.1,06.4,0000.0,0003.06,0008.91,0000.85
2022-04-12 21:51:00,,0808.8,5.02,0.00,22.3,21.2,00.0,31.3,24.1,06.4,0000.0,0003.16,0009.06,0000.84
2022-04-12 21:52:00,,0808.9,5.01,0.00,22.3,21.2,00.0,31.3,24.1,06.4,0000.0,0003.17,0008.99,0000.83
2022-04-12 21:53:00,,0808.9,4.99,0.00,22.3,21.2,00.0,31.3,24.0,06.4,0000.0,0003.25,0009.13,0000.86
2022-04-12 21:54:00,,0808.8,5.00,0.00,22.3,21.2,00.0,31.2,24.0,06.5,0000.0,0003.23,0009.12,0000.86
2022-04-12 21:55:00,,0808.8,5.00,0.00,22.3,21.2,00.0,31.2,24.0,06.6,0000.0,0003.24,0009.38,0000.86
2022-04-12 21:56:00,,0808.9,4.99,0.00,22.3,21.2,00.0,31.2,24.0,06.6,0000.0,0003.34,0010.35,0000.87
2022-04-12 21:57:00,,0809.0,4.99,0.00,22.3,21.2,00.0,31.2,24.0,06.6,0000.0,0003.39,0010.70,0000.88
2022-04-12 21:58:00,,0808.9,5.00,0.00,22.3,21.2,00.0,31.2,24.0,06.6,0000.0,0003.46,0011.11,0000.89
2022-04-12 21:59:00,,0809.0,5.01,0.00,22.3,21.2,00.0,31.2,24.0,06.6,0000.0,0003.48,0010.99,0000.90
